| time (UTC) | temp F | wind direction | speed MPH | gust MPH | rain 1hr in | rain 24hr in | rain mn in | humidity % | barometer mb |
| 20260903180507 | 94 | 32 | 1.0 | 1.0 | 0.00 | 0.00 | 0.00 | 56 | 1010.9 |
| 20260903180006 | 94 | 29 | 1.0 | 1.0 | 0.00 | 0.00 | 0.00 | 56 | 1010.9 |
| 20260903175506 | 94 | 43 | 0.0 | 1.0 | 0.00 | 0.00 | 0.00 | 56 | 1011.0 |
| 20260903175004 | 94 | 37 | 1.0 | 2.0 | 0.00 | 0.00 | 0.00 | 56 | 1011.1 |
| 20260903174459 | 93 | 50 | 0.0 | 1.0 | 0.00 | 0.00 | 0.00 | 56 | 1011.2 |
| 20260903173954 | 93 | 34 | 1.0 | 3.0 | 0.00 | 0.00 | 0.00 | 56 | 1011.1 |
| 20260903173449 | 93 | 38 | 1.0 | 2.0 | 0.00 | 0.00 | 0.00 | 56 | 1011.4 |
| 20260903172945 | 93 | 25 | 1.0 | 2.0 | 0.00 | 0.00 | 0.00 | 56 | 1011.2 |
| 20260903172440 | 93 | 29 | 0.0 | 2.0 | 0.00 | 0.00 | 0.00 | 58 | 1011.3 |
| 20260903171935 | 93 | 54 | 1.0 | 3.0 | 0.00 | 0.00 | 0.00 | 56 | 1011.5 |
| 20260903171431 | 92 | 34 | 0.0 | 1.0 | 0.00 | 0.00 | 0.00 | 58 | 1011.3 |
| 20260903170930 | 92 | 16 | 1.0 | 2.0 | 0.00 | 0.00 | 0.00 | 58 | 1011.4 |
| 20260903170425 | 92 | 33 | 0.0 | 2.0 | 0.00 | 0.00 | 0.00 | 59 | 1011.5 |
| 20260903165924 | 92 | 35 | 1.0 | 2.0 | 0.00 | 0.00 | 0.00 | 59 | 1011.9 |
| 20260903165418 | 92 | 34 | 0.0 | 1.0 | 0.00 | 0.00 | 0.00 | 59 | 1011.7 |
| 20260903164913 | 91 | 53 | 0.0 | 2.0 | 0.00 | 0.00 | 0.00 | 60 | 1011.7 |
| 20260903164408 | 91 | 60 | 1.0 | 2.0 | 0.00 | 0.00 | 0.00 | 60 | 1011.8 |
| 20260903163908 | 91 | 36 | 1.0 | 2.0 | 0.00 | 0.00 | 0.00 | 61 | 1011.8 |
| 20260903163404 | 90 | 42 | 1.0 | 2.0 | 0.00 | 0.00 | 0.00 | 61 | 1011.9 |
| 20260903162900 | 90 | 27 | 1.0 | 1.0 | 0.00 | 0.00 | 0.00 | 62 | 1011.9 |
| 20260903162356 | 90 | 34 | 0.0 | 2.0 | 0.00 | 0.00 | 0.00 | 64 | 1012.2 |
| 20260903161852 | 89 | 31 | 0.0 | 2.0 | 0.00 | 0.00 | 0.00 | 64 | 1012.0 |
| 20260903161346 | 90 | 35 | 1.0 | 2.0 | 0.00 | 0.00 | 0.00 | 63 | 1011.9 |
| 20260903160843 | 90 | 33 | 0.0 | 1.0 | 0.00 | 0.00 | 0.00 | 64 | 1012.0 |
| 20260903160341 | 89 | 43 | 1.0 | 2.0 | 0.00 | 0.00 | 0.00 | 64 | 1012.1 |
| 20260903155840 | 89 | 40 | 1.0 | 1.0 | 0.00 | 0.00 | 0.00 | 65 | 1012.0 |
| 20260903155335 | 89 | 30 | 0.0 | 1.0 | 0.00 | 0.00 | 0.00 | 65 | 1012.0 |
| 20260903154831 | 89 | 34 | 0.0 | 0.0 | 0.00 | 0.00 | 0.00 | 66 | 1012.1 |
| 20260903154327 | 89 | 30 | 0.0 | 1.0 | 0.00 | 0.00 | 0.00 | 66 | 1012.0 |
| 20260903153822 | 88 | 33 | 0.0 | 1.0 | 0.00 | 0.00 | 0.00 | 67 | 1012.1 |
| 20260903153317 | 88 | 30 | 0.0 | 1.0 | 0.00 | 0.00 | 0.00 | 68 | 1012.2 |
| 20260903152814 | 87 | 20 | 0.0 | 1.0 | 0.00 | 0.00 | 0.00 | 68 | 1011.9 |
| 20260903152309 | 87 | 35 | 1.0 | 2.0 | 0.00 | 0.00 | 0.00 | 67 | 1012.3 |
| 20260903151804 | 87 | 7 | 1.0 | 2.0 | 0.00 | 0.00 | 0.00 | 67 | 1012.1 |
| 20260903151300 | 87 | 16 | 3.0 | 3.0 | 0.00 | 0.00 | 0.00 | 66 | 1012.2 |
| 20260903150759 | 87 | 17 | 1.0 | 2.0 | 0.00 | 0.00 | 0.00 | 67 | 1012.3 |
| 20260903150254 | 87 | 4 | 1.0 | 2.0 | 0.00 | 0.00 | 0.00 | 68 | 1012.2 |
| 20260903145749 | 86 | 24 | 0.0 | 1.0 | 0.00 | 0.00 | 0.00 | 68 | 1012.1 |
| 20260903145244 | 86 | 18 | 0.0 | 2.0 | 0.00 | 0.00 | 0.00 | 68 | 1012.1 |
| 20260903144743 | 86 | 18 | 0.0 | 2.0 | 0.00 | 0.00 | 0.00 | 68 | 1012.1 |
| 20260903144239 | 85 | 18 | 1.0 | 2.0 | 0.00 | 0.00 | 0.00 | 69 | 1012.1 |
| 20260903143735 | 85 | 10 | 1.0 | 2.0 | 0.00 | 0.00 | 0.00 | 69 | 1012.0 |
| 20260903143231 | 84 | 10 | 1.0 | 3.0 | 0.00 | 0.00 | 0.00 | 69 | 1012.0 |
| 20260903142726 | 84 | 13 | 1.0 | 2.0 | 0.00 | 0.00 | 0.00 | 72 | 1012.0 |
| 20260903142222 | 84 | 17 | 0.0 | 1.0 | 0.00 | 0.00 | 0.00 | 73 | 1012.1 |
| 20260903141718 | 84 | 18 | 0.0 | 2.0 | 0.00 | 0.00 | 0.00 | 73 | 1012.1 |
| 20260903141213 | 84 | 14 | 1.0 | 1.0 | 0.00 | 0.00 | 0.00 | 74 | 1012.2 |
| 20260903140708 | 83 | 15 | 1.0 | 2.0 | 0.00 | 0.00 | 0.00 | 75 | 1012.4 |
| 20260903140203 | 84 | 20 | 0.0 | 2.0 | 0.00 | 0.00 | 0.00 | 76 | 1012.2 |
| 20260903135659 | 83 | 356 | 2.0 | 2.0 | 0.00 | 0.00 | 0.00 | 75 | 1012.1 |
| 20260903135154 | 83 | 20 | 0.0 | 1.0 | 0.00 | 0.00 | 0.00 | 77 | 1012.0 |
| 20260903134653 | 82 | 7 | 2.0 | 2.0 | 0.00 | 0.00 | 0.00 | 76 | 1012.2 |
| 20260903134149 | 82 | 16 | 1.0 | 2.0 | 0.00 | 0.00 | 0.00 | 78 | 1012.2 |
| 20260903133646 | 82 | 4 | 1.0 | 2.0 | 0.00 | 0.00 | 0.00 | 78 | 1012.2 |
| 20260903133143 | 82 | 9 | 1.0 | 2.0 | 0.00 | 0.00 | 0.00 | 78 | 1012.2 |
| 20260903132643 | 81 | 9 | 2.0 | 3.0 | 0.00 | 0.00 | 0.00 | 78 | 1012.3 |
| 20260903132143 | 81 | 359 | 2.0 | 2.0 | 0.00 | 0.00 | 0.00 | 79 | 1012.1 |
| 20260903131638 | 81 | 16 | 1.0 | 2.0 | 0.00 | 0.00 | 0.00 | 80 | 1012.2 |
| 20260903131137 | 81 | 13 | 1.0 | 1.0 | 0.00 | 0.00 | 0.00 | 80 | 1012.5 |
| 20260903130632 | 80 | 21 | 1.0 | 1.0 | 0.00 | 0.00 | 0.00 | 80 | 1012.2 |
| 20260903130132 | 79 | 11 | 1.0 | 2.0 | 0.00 | 0.00 | 0.00 | 81 | 1012.4 |
| 20260903125630 | 79 | 23 | 1.0 | 1.0 | 0.00 | 0.00 | 0.00 | 83 | 1012.1 |
| 20260903125126 | 78 | 15 | 1.0 | 1.0 | 0.00 | 0.00 | 0.00 | 85 | 1012.5 |
| 20260903124625 | 78 | 22 | 0.0 | 0.0 | 0.00 | 0.00 | 0.00 | 85 | 1012.4 |
| 20260903124119 | 78 | 19 | 0.0 | 1.0 | 0.00 | 0.00 | 0.00 | 86 | 1012.3 |
| 20260903123614 | 77 | 23 | 0.0 | 1.0 | 0.00 | 0.00 | 0.00 | 87 | 1012.5 |
| 20260903123112 | 77 | 339 | 0.0 | 1.0 | 0.00 | 0.00 | 0.00 | 88 | 1012.4 |
| 20260903122607 | 77 | 338 | 0.0 | 0.0 | 0.00 | 0.00 | 0.00 | 89 | 1012.3 |
| 20260903122106 | 77 | 341 | 0.0 | 0.0 | 0.00 | 0.00 | 0.00 | 89 | 1012.4 |
| 20260903121601 | 77 | 341 | 0.0 | 0.0 | 0.00 | 0.00 | 0.00 | 90 | 1012.5 |
| 20260903121057 | 77 | 340 | 0.0 | 0.0 | 0.00 | 0.00 | 0.00 | 90 | 1012.2 |
| 20260903120556 | 77 | 341 | 0.0 | 0.0 | 0.00 | 0.00 | 0.00 | 90 | 1012.3 |
| 20260903120050 | 76 | 340 | 0.0 | 0.0 | 0.00 | 0.00 | 0.00 | 90 | 1012.3 |
| 20260903115548 | 76 | 341 | 0.0 | 0.0 | 0.00 | 0.00 | 0.00 | 90 | 1012.4 |
| 20260903115044 | 76 | 341 | 0.0 | 0.0 | 0.00 | 0.00 | 0.00 | 90 | 1012.3 |
| 20260903114539 | 76 | 341 | 0.0 | 0.0 | 0.00 | 0.00 | 0.00 | 90 | 1012.3 |
| 20260903114035 | 76 | 341 | 0.0 | 0.0 | 0.00 | 0.00 | 0.00 | 90 | 1012.2 |
| 20260903113530 | 76 | 341 | 0.0 | 0.0 | 0.00 | 0.00 | 0.00 | 90 | 1012.3 |
| 20260903113026 | 76 | 341 | 0.0 | 0.0 | 0.00 | 0.00 | 0.00 | 90 | 1012.0 |
| 20260903112521 | 76 | 340 | 0.0 | 0.0 | 0.00 | 0.00 | 0.00 | 90 | 1011.9 |
| 20260903112022 | 76 | 341 | 0.0 | 0.0 | 0.00 | 0.00 | 0.00 | 90 | 1012.2 |
| 20260903111520 | 76 | 341 | 0.0 | 0.0 | 0.00 | 0.00 | 0.00 | 90 | 1012.1 |
| 20260903111016 | 76 | 341 | 0.0 | 0.0 | 0.00 | 0.00 | 0.00 | 90 | 1012.0 |
| 20260903110513 | 76 | 341 | 0.0 | 0.0 | 0.00 | 0.00 | 0.00 | 89 | 1011.9 |
| 20260903110007 | 76 | 341 | 0.0 | 0.0 | 0.00 | 0.00 | 0.00 | 89 | 1011.8 |
| 20260903105502 | 77 | 341 | 0.0 | 0.0 | 0.00 | 0.00 | 0.00 | 89 | 1011.8 |
| 20260903104956 | 77 | 341 | 0.0 | 0.0 | 0.00 | 0.00 | 0.00 | 89 | 1011.6 |
| 20260903104455 | 77 | 341 | 0.0 | 0.0 | 0.00 | 0.00 | 0.00 | 89 | 1011.8 |
| 20260903103952 | 77 | 341 | 0.0 | 0.0 | 0.00 | 0.00 | 0.00 | 89 | 1011.6 |
| 20260903103448 | 77 | 341 | 0.0 | 0.0 | 0.00 | 0.00 | 0.00 | 89 | 1011.7 |
| 20260903102943 | 76 | 341 | 0.0 | 0.0 | 0.00 | 0.00 | 0.00 | 88 | 1011.6 |
| 20260903102439 | 76 | 341 | 0.0 | 0.0 | 0.00 | 0.00 | 0.00 | 88 | 1011.7 |
| 20260903101937 | 76 | 341 | 0.0 | 0.0 | 0.00 | 0.00 | 0.00 | 88 | 1011.5 |
| 20260903101432 | 77 | 341 | 0.0 | 0.0 | 0.00 | 0.00 | 0.00 | 88 | 1011.6 |
| 20260903100928 | 77 | 341 | 0.0 | 0.0 | 0.00 | 0.00 | 0.00 | 88 | 1011.3 |
| 20260903100423 | 76 | 341 | 0.0 | 0.0 | 0.00 | 0.00 | 0.00 | 87 | 1011.3 |
| 20260903095920 | 76 | 341 | 0.0 | 0.0 | 0.00 | 0.00 | 0.00 | 87 | 1011.4 |
| 20260903095415 | 77 | 341 | 0.0 | 0.0 | 0.00 | 0.00 | 0.00 | 87 | 1011.2 |
| 20260903094910 | 77 | 341 | 0.0 | 0.0 | 0.00 | 0.00 | 0.00 | 87 | 1011.3 |
| 20260903094409 | 76 | 341 | 0.0 | 0.0 | 0.00 | 0.00 | 0.00 | 87 | 1011.4 |
| 20260903093906 | 76 | 341 | 0.0 | 0.0 | 0.00 | 0.00 | 0.00 | 87 | 1011.3 |
| 20260903093400 | 76 | 341 | 0.0 | 0.0 | 0.00 | 0.00 | 0.00 | 87 | 1011.4 |
| 20260903092856 | 77 | 341 | 0.0 | 0.0 | 0.00 | 0.00 | 0.00 | 87 | 1011.4 |
| 20260903092355 | 77 | 341 | 0.0 | 0.0 | 0.00 | 0.00 | 0.00 | 87 | 1011.4 |
| 20260903091854 | 77 | 341 | 0.0 | 0.0 | 0.00 | 0.00 | 0.00 | 87 | 1011.5 |
| 20260903091353 | 77 | 341 | 0.0 | 0.0 | 0.00 | 0.00 | 0.00 | 86 | 1011.5 |
| 20260903090848 | 77 | 341 | 0.0 | 0.0 | 0.00 | 0.00 | 0.00 | 86 | 1011.3 |
| 20260903090344 | 77 | 341 | 0.0 | 0.0 | 0.00 | 0.00 | 0.00 | 86 | 1011.4 |
| 20260903085842 | 77 | 341 | 0.0 | 0.0 | 0.00 | 0.00 | 0.00 | 86 | 1011.2 |
| 20260903085336 | 77 | 341 | 0.0 | 0.0 | 0.00 | 0.00 | 0.00 | 85 | 1011.2 |
| 20260903084835 | 77 | 341 | 0.0 | 0.0 | 0.00 | 0.00 | 0.00 | 85 | 1011.2 |
| 20260903084334 | 77 | 341 | 0.0 | 0.0 | 0.00 | 0.00 | 0.00 | 85 | 1011.2 |
| 20260903083830 | 77 | 341 | 0.0 | 0.0 | 0.00 | 0.00 | 0.00 | 85 | 1011.4 |
| 20260903083325 | 77 | 341 | 0.0 | 0.0 | 0.00 | 0.00 | 0.00 | 85 | 1011.2 |
| 20260903082824 | 78 | 341 | 0.0 | 0.0 | 0.00 | 0.00 | 0.00 | 85 | 1010.9 |
| 20260903082319 | 78 | 341 | 0.0 | 0.0 | 0.00 | 0.00 | 0.00 | 85 | 1011.3 |
| 20260903081815 | 78 | 341 | 0.0 | 0.0 | 0.00 | 0.00 | 0.00 | 84 | 1011.1 |
| 20260903081310 | 78 | 341 | 0.0 | 0.0 | 0.00 | 0.00 | 0.00 | 84 | 1011.0 |
| 20260903080806 | 78 | 344 | 0.0 | 0.0 | 0.00 | 0.00 | 0.00 | 84 | 1010.7 |
| 20260903080304 | 78 | 344 | 0.0 | 0.0 | 0.00 | 0.00 | 0.00 | 84 | 1010.7 |
| 20260903075803 | 78 | 345 | 0.0 | 0.0 | 0.00 | 0.00 | 0.00 | 84 | 1010.9 |
| 20260903075258 | 79 | 345 | 0.0 | 0.0 | 0.00 | 0.00 | 0.00 | 84 | 1010.9 |
| 20260903074757 | 79 | 337 | 1.0 | 1.0 | 0.00 | 0.00 | 0.00 | 84 | 1010.6 |
| 20260903074252 | 79 | 340 | 0.0 | 0.0 | 0.00 | 0.00 | 0.00 | 83 | 1010.6 |
| 20260903073747 | 79 | 335 | 1.0 | 2.0 | 0.00 | 0.00 | 0.00 | 84 | 1010.9 |
| 20260903073243 | 79 | 339 | 0.0 | 1.0 | 0.00 | 0.00 | 0.00 | 83 | 1010.8 |
| 20260903072739 | 79 | 338 | 1.0 | 1.0 | 0.00 | 0.00 | 0.00 | 83 | 1010.7 |
| 20260903072235 | 79 | 331 | 1.0 | 2.0 | 0.00 | 0.00 | 0.00 | 83 | 1011.0 |
| 20260903071731 | 79 | 338 | 0.0 | 1.0 | 0.00 | 0.00 | 0.00 | 83 | 1010.8 |
| 20260903071227 | 79 | 340 | 0.0 | 0.0 | 0.00 | 0.00 | 0.00 | 82 | 1010.6 |
| 20260903070726 | 79 | 340 | 0.0 | 0.0 | 0.00 | 0.00 | 0.00 | 82 | 1010.7 |
| 20260903070222 | 79 | 341 | 0.0 | 0.0 | 0.00 | 0.00 | 0.00 | 82 | 1010.9 |
| 20260903065717 | 79 | 341 | 0.0 | 0.0 | 0.00 | 0.00 | 0.00 | 82 | 1010.7 |
| 20260903065216 | 79 | 341 | 0.0 | 0.0 | 0.00 | 0.00 | 0.00 | 82 | 1010.5 |
| 20260903064716 | 79 | 342 | 0.0 | 0.0 | 0.00 | 0.00 | 0.00 | 82 | 1010.6 |
| 20260903064211 | 79 | 342 | 0.0 | 0.0 | 0.00 | 0.00 | 0.00 | 81 | 1010.5 |
| 20260903063707 | 79 | 342 | 0.0 | 0.0 | 0.00 | 0.00 | 0.00 | 81 | 1010.6 |
| 20260903063201 | 79 | 342 | 0.0 | 0.0 | 0.00 | 0.00 | 0.00 | 81 | 1010.7 |
| 20260903062657 | 80 | 342 | 0.0 | 0.0 | 0.00 | 0.00 | 0.00 | 80 | 1010.7 |
| 20260903062152 | 80 | 341 | 0.0 | 0.0 | 0.00 | 0.00 | 0.00 | 80 | 1010.6 |
| 20260903061647 | 80 | 341 | 0.0 | 0.0 | 0.00 | 0.00 | 0.00 | 80 | 1010.4 |
| 20260903061146 | 80 | 341 | 0.0 | 0.0 | 0.00 | 0.00 | 0.00 | 79 | 1010.7 |
| 20260903060642 | 80 | 338 | 0.0 | 1.0 | 0.00 | 0.00 | 0.00 | 79 | 1010.5 |
| 20260903060137 | 80 | 340 | 0.0 | 0.0 | 0.00 | 0.00 | 0.00 | 79 | 1010.5 |
| 20260903055635 | 80 | 340 | 0.0 | 1.0 | 0.00 | 0.00 | 0.00 | 79 | 1010.6 |
| 20260903055133 | 81 | 338 | 0.0 | 1.0 | 0.00 | 0.00 | 0.00 | 79 | 1010.4 |
| 20260903054628 | 80 | 333 | 1.0 | 2.0 | 0.00 | 0.00 | 0.00 | 80 | 1010.5 |
| 20260903054124 | 80 | 344 | 0.0 | 0.0 | 0.00 | 0.00 | 0.00 | 80 | 1010.6 |
| 20260903053620 | 80 | 346 | 0.0 | 0.0 | 0.00 | 0.00 | 0.00 | 81 | 1010.9 |
| 20260903053115 | 80 | 346 | 0.0 | 0.0 | 0.00 | 0.00 | 0.00 | 81 | 1011.1 |
| 20260903052611 | 80 | 346 | 0.0 | 0.0 | 0.00 | 0.00 | 0.00 | 82 | 1011.4 |
| 20260903052106 | 80 | 346 | 0.0 | 1.0 | 0.00 | 0.00 | 0.00 | 82 | 1011.1 |
| 20260903051601 | 79 | 356 | 0.0 | 0.0 | 0.00 | 0.00 | 0.00 | 83 | 1011.1 |
| 20260903051056 | 79 | 356 | 0.0 | 0.0 | 0.00 | 0.00 | 0.00 | 85 | 1011.3 |
| 20260903050555 | 79 | 356 | 0.0 | 0.0 | 0.00 | 0.00 | 0.00 | 86 | 1011.1 |
| 20260903050051 | 80 | 356 | 0.0 | 1.0 | 0.00 | 0.00 | 0.00 | 87 | 1011.2 |
| 20260903045550 | 80 | 356 | 0.0 | 0.0 | 0.00 | 0.00 | 0.00 | 87 | 1011.2 |
| 20260903045047 | 80 | 357 | 0.0 | 0.0 | 0.00 | 0.00 | 0.00 | 87 | 1011.0 |
| 20260903044543 | 80 | 356 | 0.0 | 0.0 | 0.00 | 0.00 | 0.00 | 87 | 1011.1 |
| 20260903044038 | 80 | 356 | 0.0 | 0.0 | 0.00 | 0.00 | 0.00 | 87 | 1011.2 |
| 20260903043534 | 80 | 356 | 0.0 | 0.0 | 0.00 | 0.00 | 0.00 | 87 | 1011.1 |
| 20260903043033 | 81 | 356 | 0.0 | 0.0 | 0.00 | 0.00 | 0.00 | 87 | 1011.0 |
| 20260903042528 | 81 | 356 | 0.0 | 0.0 | 0.00 | 0.00 | 0.00 | 86 | 1011.0 |
| 20260903042024 | 81 | 357 | 0.0 | 1.0 | 0.00 | 0.00 | 0.00 | 86 | 1010.8 |
| 20260903041520 | 81 | 355 | 0.0 | 1.0 | 0.00 | 0.00 | 0.00 | 86 | 1011.1 |
| 20260903041015 | 81 | 351 | 0.0 | 1.0 | 0.00 | 0.00 | 0.00 | 86 | 1010.9 |
| 20260903040514 | 81 | 349 | 0.0 | 0.0 | 0.00 | 0.00 | 0.00 | 85 | 1011.0 |
| 20260903040011 | 82 | 348 | 0.0 | 0.0 | 0.00 | 0.00 | 0.00 | 85 | 1011.1 |
| 20260903035506 | 82 | 348 | 0.0 | 0.0 | 0.00 | 0.00 | 0.00 | 84 | 1011.0 |
| 20260903035001 | 82 | 348 | 0.0 | 0.0 | 0.00 | 0.00 | 0.00 | 84 | 1011.3 |
| 20260903034456 | 82 | 348 | 0.0 | 0.0 | 0.00 | 0.00 | 0.00 | 83 | 1011.0 |
| 20260903033956 | 82 | 347 | 0.0 | 0.0 | 0.00 | 0.00 | 0.00 | 82 | 1011.3 |
| 20260903033451 | 83 | 347 | 0.0 | 0.0 | 0.00 | 0.00 | 0.00 | 81 | 1011.3 |
| 20260903032946 | 83 | 348 | 0.0 | 0.0 | 0.00 | 0.00 | 0.00 | 80 | 1011.4 |
| 20260903032442 | 82 | 348 | 0.0 | 1.0 | 0.00 | 0.00 | 0.00 | 78 | 1011.4 |
| 20260903031937 | 82 | 352 | 0.0 | 0.0 | 0.00 | 0.00 | 0.00 | 77 | 1011.4 |
| 20260903031431 | 82 | 352 | 0.0 | 0.0 | 0.00 | 0.00 | 0.00 | 77 | 1011.3 |
| 20260903030926 | 82 | 352 | 0.0 | 0.0 | 0.00 | 0.00 | 0.00 | 78 | 1011.4 |
| 20260903030422 | 82 | 352 | 0.0 | 0.0 | 0.00 | 0.00 | 0.00 | 79 | 1011.4 |
| 20260903025918 | 82 | 352 | 0.0 | 0.0 | 0.00 | 0.00 | 0.00 | 79 | 1011.5 |
| 20260903025414 | 82 | 352 | 0.0 | 0.0 | 0.00 | 0.00 | 0.00 | 79 | 1011.2 |
| 20260903024908 | 82 | 352 | 0.0 | 0.0 | 0.00 | 0.00 | 0.00 | 79 | 1011.6 |
| 20260903024402 | 82 | 352 | 0.0 | 0.0 | 0.00 | 0.00 | 0.00 | 79 | 1011.4 |
| 20260903023857 | 82 | 352 | 0.0 | 0.0 | 0.00 | 0.00 | 0.00 | 78 | 1011.2 |
| 20260903023353 | 82 | 353 | 0.0 | 0.0 | 0.00 | 0.00 | 0.00 | 78 | 1011.5 |
| 20260903022848 | 82 | 351 | 0.0 | 0.0 | 0.00 | 0.00 | 0.00 | 78 | 1011.3 |
| 20260903022347 | 82 | 352 | 0.0 | 1.0 | 0.00 | 0.00 | 0.00 | 77 | 1011.3 |
| 20260903021846 | 82 | 346 | 0.0 | 0.0 | 0.00 | 0.00 | 0.00 | 77 | 1011.3 |
| 20260903021342 | 83 | 346 | 0.0 | 1.0 | 0.00 | 0.00 | 0.00 | 77 | 1011.6 |
| 20260903020841 | 83 | 352 | 0.0 | 0.0 | 0.00 | 0.00 | 0.00 | 77 | 1011.5 |
| 20260903020337 | 83 | 353 | 0.0 | 0.0 | 0.00 | 0.00 | 0.00 | 78 | 1011.6 |
| 20260903015831 | 83 | 355 | 0.0 | 2.0 | 0.00 | 0.00 | 0.00 | 78 | 1011.4 |
| 20260903015327 | 85 | 351 | 1.0 | 3.0 | 0.00 | 0.00 | 0.00 | 79 | 1011.5 |
| 20260903014822 | 86 | 358 | 1.0 | 2.0 | 0.00 | 0.00 | 0.00 | 77 | 1011.4 |
| 20260903014322 | 86 | 352 | 0.0 | 0.0 | 0.00 | 0.00 | 0.00 | 73 | 1011.2 |
| 20260903013817 | 86 | 347 | 0.0 | 1.0 | 0.00 | 0.00 | 0.00 | 71 | 1011.4 |
| 20260903013316 | 86 | 352 | 0.0 | 1.0 | 0.00 | 0.00 | 0.00 | 71 | 1011.1 |
| 20260903012815 | 86 | 348 | 0.0 | 0.0 | 0.00 | 0.00 | 0.00 | 71 | 1011.0 |
| 20260903012310 | 86 | 351 | 0.0 | 1.0 | 0.00 | 0.00 | 0.00 | 70 | 1010.9 |
| 20260903011809 | 85 | 351 | 0.0 | 1.0 | 0.00 | 0.00 | 0.00 | 73 | 1011.1 |
| 20260903011309 | 85 | 350 | 0.0 | 5.0 | 0.00 | 0.00 | 0.00 | 77 | 1011.1 |
| 20260903010804 | 86 | 10 | 2.0 | 2.0 | 0.00 | 0.00 | 0.00 | 81 | 1010.8 |
| 20260903010300 | 86 | 344 | 0.0 | 0.0 | 0.00 | 0.00 | 0.00 | 80 | 1010.4 |
| 20260903005758 | 86 | 347 | 0.0 | 0.0 | 0.00 | 0.00 | 0.00 | 80 | 1010.6 |
| 20260903005253 | 86 | 343 | 0.0 | 1.0 | 0.00 | 0.00 | 0.00 | 79 | 1010.5 |
| 20260903004749 | 86 | 338 | 0.0 | 0.0 | 0.00 | 0.00 | 0.00 | 79 | 1010.5 |
| 20260903004244 | 86 | 338 | 0.0 | 0.0 | 0.00 | 0.00 | 0.00 | 78 | 1010.4 |
| 20260903003740 | 87 | 338 | 0.0 | 0.0 | 0.00 | 0.00 | 0.00 | 77 | 1010.5 |
| 20260903003234 | 87 | 338 | 0.0 | 0.0 | 0.00 | 0.00 | 0.00 | 76 | 1010.3 |
| 20260903002729 | 87 | 337 | 0.0 | 0.0 | 0.00 | 0.00 | 0.00 | 74 | 1010.1 |
| 20260903002223 | 87 | 337 | 0.0 | 1.0 | 0.00 | 0.00 | 0.00 | 73 | 1010.2 |
| 20260903001719 | 87 | 336 | 0.0 | 0.0 | 0.00 | 0.00 | 0.00 | 73 | 1010.2 |
| 20260903001219 | 87 | 339 | 0.0 | 0.0 | 0.00 | 0.00 | 0.00 | 73 | 1009.9 |
| 20260903000714 | 88 | 340 | 0.0 | 0.0 | 0.00 | 0.00 | 0.00 | 72 | 1009.8 |
| 20260903000213 | 87 | 22 | 0.0 | 0.0 | 0.00 | 0.00 | 0.00 | 71 | 1010.0 |
| 20260902235712 | 87 | 22 | 0.0 | 0.0 | 0.00 | 0.00 | 0.00 | 70 | 1009.9 |
| 20260902235208 | 88 | 22 | 0.0 | 0.0 | 0.00 | 0.00 | 0.00 | 73 | 1009.8 |
| 20260902234707 | 89 | 22 | 0.0 | 0.0 | 0.00 | 0.00 | 0.00 | 73 | 1010.1 |
| 20260902234206 | 89 | 22 | 0.0 | 0.0 | 0.00 | 0.00 | 0.00 | 72 | 1010.0 |
| 20260902233701 | 89 | 22 | 0.0 | 0.0 | 0.00 | 0.00 | 0.00 | 71 | 1009.8 |
| 20260902233201 | 90 | 22 | 0.0 | 0.0 | 0.00 | 0.00 | 0.00 | 71 | 1009.9 |
| 20260902232659 | 90 | 22 | 0.0 | 0.0 | 0.00 | 0.00 | 0.00 | 70 | 1010.0 |
| 20260902232159 | 91 | 21 | 0.0 | 0.0 | 0.00 | 0.00 | 0.00 | 69 | 1009.8 |
| 20260902231653 | 91 | 20 | 0.0 | 0.0 | 0.00 | 0.00 | 0.00 | 68 | 1009.9 |
| 20260902231148 | 91 | 19 | 1.0 | 1.0 | 0.00 | 0.00 | 0.00 | 69 | 1010.2 |
| 20260902230643 | 91 | 20 | 0.0 | 0.0 | 0.00 | 0.00 | 0.00 | 61 | 1010.1 |
| 20260902230142 | 92 | 20 | 0.0 | 0.0 | 0.00 | 0.00 | 0.00 | 61 | 1010.1 |
| 20260902225637 | 92 | 20 | 0.0 | 0.0 | 0.00 | 0.00 | 0.00 | 61 | 1009.8 |
| 20260902225137 | 93 | 20 | 0.0 | 0.0 | 0.00 | 0.00 | 0.00 | 61 | 1010.0 |
| 20260902224635 | 93 | 20 | 0.0 | 0.0 | 0.00 | 0.00 | 0.00 | 59 | 1010.0 |
| 20260902224131 | 94 | 20 | 0.0 | 0.0 | 0.00 | 0.00 | 0.00 | 57 | 1009.7 |
| 20260902223628 | 94 | 20 | 0.0 | 0.0 | 0.00 | 0.00 | 0.00 | 57 | 1010.1 |
| 20260902223127 | 94 | 20 | 0.0 | 0.0 | 0.00 | 0.00 | 0.00 | 56 | 1009.8 |
| 20260902222626 | 94 | 20 | 0.0 | 0.0 | 0.00 | 0.00 | 0.00 | 57 | 1009.9 |
| 20260902222125 | 94 | 20 | 0.0 | 0.0 | 0.00 | 0.00 | 0.00 | 56 | 1010.1 |
| 20260902221619 | 94 | 20 | 0.0 | 0.0 | 0.00 | 0.00 | 0.00 | 56 | 1010.0 |
| 20260902221114 | 95 | 20 | 0.0 | 0.0 | 0.00 | 0.00 | 0.00 | 55 | 1010.0 |
| 20260902220610 | 95 | 20 | 0.0 | 0.0 | 0.00 | 0.00 | 0.00 | 54 | 1009.9 |
| 20260902220104 | 95 | 20 | 1.0 | 2.0 | 0.00 | 0.00 | 0.00 | 53 | 1009.9 |
| 20260902215601 | 95 | 23 | 0.0 | 0.0 | 0.00 | 0.00 | 0.00 | 53 | 1009.9 |
| 20260902215056 | 95 | 23 | 0.0 | 1.0 | 0.00 | 0.00 | 0.00 | 52 | 1010.2 |
| 20260902214555 | 95 | 25 | 0.0 | 1.0 | 0.00 | 0.00 | 0.00 | 52 | 1010.0 |
| 20260902214055 | 95 | 21 | 1.0 | 2.0 | 0.00 | 0.00 | 0.00 | 50 | 1010.1 |
| 20260902213550 | 96 | 14 | 2.0 | 2.0 | 0.00 | 0.00 | 0.00 | 53 | 1009.9 |
| 20260902213049 | 96 | 33 | 0.0 | 1.0 | 0.00 | 0.00 | 0.00 | 50 | 1010.2 |
| 20260902212545 | 96 | 4 | 1.0 | 2.0 | 0.00 | 0.00 | 0.00 | 52 | 1010.2 |
| 20260902212041 | 95 | 35 | 0.0 | 1.0 | 0.00 | 0.00 | 0.00 | 50 | 1009.9 |
| 20260902211537 | 95 | 7 | 1.0 | 1.0 | 0.00 | 0.00 | 0.00 | 51 | 1010.0 |
| 20260902211032 | 96 | 36 | 0.0 | 1.0 | 0.00 | 0.00 | 0.00 | 52 | 1010.3 |
| 20260902210532 | 96 | 39 | 0.0 | 1.0 | 0.00 | 0.00 | 0.00 | 51 | 1010.4 |
| 20260902210026 | 95 | 33 | 0.0 | 1.0 | 0.00 | 0.00 | 0.00 | 50 | 1010.1 |
| 20260902205520 | 95 | 17 | 0.0 | 2.0 | 0.00 | 0.00 | 0.00 | 51 | 1010.2 |
| 20260902205016 | 95 | 16 | 0.0 | 1.0 | 0.00 | 0.00 | 0.00 | 52 | 1010.2 |
| 20260902204515 | 96 | 32 | 0.0 | 0.0 | 0.00 | 0.00 | 0.00 | 50 | 1010.3 |
| 20260902204010 | 95 | 19 | 1.0 | 2.0 | 0.00 | 0.00 | 0.00 | 51 | 1010.2 |
| 20260902203506 | 95 | 29 | 0.0 | 1.0 | 0.00 | 0.00 | 0.00 | 51 | 1010.4 |
| 20260902203005 | 95 | 1 | 1.0 | 2.0 | 0.00 | 0.00 | 0.00 | 50 | 1010.5 |
| 20260902202501 | 95 | 10 | 1.0 | 1.0 | 0.00 | 0.00 | 0.00 | 50 | 1010.5 |
| 20260902201957 | 96 | 17 | 0.0 | 2.0 | 0.00 | 0.00 | 0.00 | 49 | 1010.7 |
| 20260902201458 | 97 | 17 | 1.0 | 1.0 | 0.00 | 0.00 | 0.00 | 48 | 1010.7 |
| 20260902200958 | 96 | 34 | 0.0 | 1.0 | 0.00 | 0.00 | 0.00 | 49 | 1010.8 |
| 20260902200453 | 96 | 38 | 0.0 | 1.0 | 0.00 | 0.00 | 0.00 | 51 | 1010.9 |
| 20260902195948 | 97 | 14 | 2.0 | 2.0 | 0.00 | 0.00 | 0.00 | 49 | 1010.6 |
| 20260902195438 | 97 | 32 | 0.0 | 0.0 | 0.00 | 0.00 | 0.00 | 47 | 1010.9 |
| 20260902194932 | 96 | 29 | 0.0 | 2.0 | 0.00 | 0.00 | 0.00 | 50 | 1010.9 |
| 20260902194432 | 98 | 35 | 0.0 | 1.0 | 0.00 | 0.00 | 0.00 | 49 | 1010.8 |
| 20260902193927 | 98 | 26 | 0.0 | 1.0 | 0.00 | 0.00 | 0.00 | 49 | 1011.1 |
| 20260902193423 | 98 | 21 | 0.0 | 1.0 | 0.00 | 0.00 | 0.00 | 49 | 1011.0 |
| 20260902192921 | 97 | 24 | 0.0 | 2.0 | 0.00 | 0.00 | 0.00 | 51 | 1011.1 |
| 20260902192420 | 98 | 34 | 0.0 | 2.0 | 0.00 | 0.00 | 0.00 | 50 | 1011.1 |
| 20260902191919 | 98 | 28 | 1.0 | 2.0 | 0.00 | 0.00 | 0.00 | 49 | 1011.2 |
| 20260902191415 | 97 | 23 | 0.0 | 0.0 | 0.00 | 0.00 | 0.00 | 51 | 1011.3 |
| 20260902190910 | 96 | 17 | 2.0 | 2.0 | 0.00 | 0.00 | 0.00 | 51 | 1011.3 |
| 20260902190405 | 97 | 32 | 3.0 | 6.0 | 0.00 | 0.00 | 0.00 | 50 | 1011.4 |
| 20260902185901 | 96 | 28 | 0.0 | 2.0 | 0.00 | 0.00 | 0.00 | 51 | 1011.2 |
| 20260902185356 | 96 | 51 | 2.0 | 3.0 | 0.00 | 0.00 | 0.00 | 51 | 1011.4 |
| 20260902184851 | 96 | 21 | 0.0 | 1.0 | 0.00 | 0.00 | 0.00 | 52 | 1011.6 |
| 20260902184347 | 95 | 25 | 0.0 | 2.0 | 0.00 | 0.00 | 0.00 | 53 | 1011.6 |
| 20260902183842 | 95 | 33 | 0.0 | 1.0 | 0.00 | 0.00 | 0.00 | 53 | 1011.8 |
| 20260902183339 | 95 | 33 | 0.0 | 2.0 | 0.00 | 0.00 | 0.00 | 53 | 1011.7 |
| 20260902182834 | 94 | 21 | 1.0 | 2.0 | 0.00 | 0.00 | 0.00 | 57 | 1011.8 |
| 20260902182331 | 93 | 31 | 1.0 | 1.0 | 0.00 | 0.00 | 0.00 | 57 | 1011.9 |
| 20260902181827 | 93 | 33 | 1.0 | 2.0 | 0.00 | 0.00 | 0.00 | 57 | 1012.0 |
| 20260902181322 | 93 | 22 | 0.0 | 0.0 | 0.00 | 0.00 | 0.00 | 57 | 1011.8 |
| 20260902180821 | 93 | 21 | 0.0 | 1.0 | 0.00 | 0.00 | 0.00 | 55 | 1011.6 |